Blythe, CA

6:54 AM PDT on September 19, 2017 (GMT -0700)
Blythe

Weather History for KBLH - April, 2014

Change the Weather History Date:

Wednesday, April 30, 2014

  Actual Average Record
Temperature  
Mean Temperature 78 °F -  
Max Temperature 88 °F 89 °F 102 °F (2013)
Min Temperature 68 °F 59 °F 53 °F (1970)
Cooling Degree Days 12    
Growing Degree Days 28 (Base 50)    
Moisture  
Dew Point 10 °F    
Average Humidity 7    
Maximum Humidity 12    
Minimum Humidity 5    
Precipitation  
Precipitation 0.00 in - - ()
Sea Level Pressure  
Sea Level Pressure 30.00 in    
Wind  
Wind Speed 23 mph (North)    
Max Wind Speed 30 mph    
Max Gust Speed 40 mph    
Visibility 10 miles    
Events      
Averages and records for this station are not official NWS values.
T = Trace of Precipitation, MM = Missing Value Source: NWS Daily Summary

Daily Weather History Graph

Daily Weather History Graph

Search for Another Location

Airport or City:

Trip Planner

Search our weather history database for the weather conditions in past years. The results will help you decide how hot, cold, wet, or windy it might be!

Date:

Astronomy

Apr. 30, 2014 Rise Set
Actual Time 5:51 AM PDT 7:21 PM PDT
Civil Twilight 5:24 AM PDT 7:47 PM PDT
Nautical Twilight 4:53 AM PDT 8:19 PM PDT
Astronomical Twilight 4:19 AM PDT 8:53 PM PDT
Moon 6:57 AM PDT (4/30) 9:01 PM PDT (4/30)
Length of Visible Light 14h 23m
Length of Day
13h 30m
Waxing Crescent, 3% of the Moon is Illuminated
Apr 30
Waxing Crescent
May 6
First Quarter
May 14
Full
May 21
Last Quarter
May 28
New

Hourly Weather History & Observations

Time (PDT) Temp. Dew Point Humidity Pressure Visibility Wind Dir Wind Speed Gust Speed Precip Events Conditions
12:52 AM 75.0 °F 3.9 °F 6% 30.04 in 10.0 mi North 19.6 mph - N/A   Clear
1:52 AM 75.0 °F 5.0 °F 7% 30.04 in 10.0 mi North 24.2 mph - N/A   Clear
2:52 AM 73.9 °F 5.0 °F 7% 30.06 in 10.0 mi North 27.6 mph - N/A   Clear
3:52 AM 72.0 °F 9.0 °F 9% 30.07 in 10.0 mi North 20.7 mph 29.9 mph N/A   Clear
4:52 AM 70.0 °F 10.0 °F 10% 30.08 in 10.0 mi North 29.9 mph 38.0 mph N/A   Clear
5:52 AM 68.0 °F 10.9 °F 11% 30.10 in 10.0 mi North 21.9 mph 33.4 mph N/A   Clear
6:52 AM 69.1 °F 14.0 °F 12% 30.11 in 10.0 mi North 26.5 mph 34.5 mph N/A   Clear
8:52 AM 75.0 °F 14.0 °F 10% 30.12 in 10.0 mi North 28.8 mph 33.4 mph N/A   Clear
9:52 AM 78.1 °F 12.9 °F 8% 30.11 in 10.0 mi North 21.9 mph 36.8 mph N/A   Clear
11:52 AM 82.9 °F 12.0 °F 7% 30.06 in 10.0 mi NNE 24.2 mph 34.5 mph N/A   Clear
12:52 PM 84.9 °F 12.9 °F 7% 30.02 in 10.0 mi North 24.2 mph 40.3 mph N/A   Clear
1:52 PM 86.0 °F 12.9 °F 7% 29.99 in 5.0 mi North 21.9 mph 39.1 mph N/A   Haze
2:52 PM 86.0 °F 12.9 °F 7% 29.97 in 8.0 mi North 24.2 mph 40.3 mph N/A   Clear
3:52 PM 87.1 °F 12.0 °F 6% 29.94 in 10.0 mi North 24.2 mph 35.7 mph N/A   Clear
4:52 PM 87.1 °F 12.0 °F 6% 29.91 in 10.0 mi North 26.5 mph 34.5 mph N/A   Clear
5:52 PM 86.0 °F 10.9 °F 6% 29.89 in 10.0 mi North 26.5 mph 39.1 mph N/A   Clear
6:52 PM 84.0 °F 12.0 °F 7% 29.89 in 10.0 mi North 24.2 mph - N/A   Clear
7:52 PM 82.0 °F 12.0 °F 7% 29.90 in 10.0 mi North 21.9 mph 28.8 mph N/A   Clear
8:52 PM 82.0 °F 6.1 °F 6% 29.92 in 10.0 mi North 19.6 mph - N/A   Clear
9:52 PM 81.0 °F 5.0 °F 5% 29.94 in 10.0 mi North 21.9 mph 28.8 mph N/A   Clear
10:52 PM 80.1 °F 5.0 °F 6% 29.94 in 10.0 mi North 20.7 mph - N/A   Clear
11:52 PM 78.1 °F 7.0 °F 7% 29.97 in 8.0 mi NE 21.9 mph 26.5 mph N/A   Clear